Flag for France Weather past 2 weeks in Besançon, France

Now
43 °F

Partly cloudy.


Feels Like: 37 °F
Forecast: 40 / 49 °F
Wind: 10 mph from Southwest

Location: Dole Tavaux

Current Time: Apr 1, 2015 at 7:00:19 AM

Latest Report: Apr 1, 2015 at 6:30 AM


Visibility: N/A

Pressure: 30.27 "Hg

Humidity: 76%

Dew point: 36 °F

Location of BesançonLocation

Historic Weather in Besançon — Graph

°F

Besançon temperature yesterday

Maximum temperature yesterday: 57 °F (at 4:30 PM)
Minimum temperature yesterday: 48 °F (at 11:00 PM)
Average temperature yesterday: 54 °F

Past Weeks' High & Low Weather Summary

 TemperatureHumidityPressure
High68 °F (Mar 18, 4:00 PM)100% (Mar 21, 8:00 AM)30.27 "Hg (Mar 21, 8:00 AM)
Low30 °F (Mar 23, 6:00 AM)32% (Mar 18, 3:00 PM)29.65 "Hg (Mar 24, 5:00 PM)
Average48 °F78%30.03 "Hg
* Reported Mar 17 5:00 AM — Apr 1 6:00 AM, Besançon, Weather by CustomWeather, © 2015

Note: Actual official high and low records may vary slightly from our data, if they occured in-between our weather recording intervals... More about our weather records

Advertising

Besançon weather history for previous 24 hours

 ConditionsComfort  
Time TempWeatherWind HumidityBarometerVisibility
6:00 AM
Wed, Apr 1
41 °FMostly cloudy.12 mph81%30.24 "HgN/A
5:30 AM41 °FMostly cloudy.10 mph81%30.24 "HgN/A
4:30 AM39 °FClear.10 mph81%30.24 "HgN/A
4:00 AM41 °FPartly cloudy.9 mph76%30.24 "HgN/A
3:30 AM39 °FPassing clouds.9 mph81%30.24 "HgN/A
3:00 AM41 °FClear.9 mph76%30.24 "HgN/A
2:30 AM39 °FPassing clouds.9 mph81%30.21 "HgN/A
2:00 AM41 °FClear.7 mph81%30.21 "HgN/A
1:30 AM39 °FClear.8 mph87%30.21 "HgN/A
1:00 AM41 °FClear.8 mph81%30.18 "HgN/A
12:30 AM41 °FClear.6 mph81%30.18 "HgN/A
12:00 AM48 °FClear.9 mph62%30.18 "HgN/A
11:30 PM
Tue, Mar 31
50 °FClear.9 mph58%30.15 "HgN/A
11:00 PM48 °FClear.10 mph62%30.15 "HgN/A
10:30 PM50 °FClear.7 mph58%30.15 "HgN/A
10:00 PM50 °FClear.8 mph58%30.15 "HgN/A
9:30 PM52 °FClear.9 mph54%30.12 "HgN/A
9:00 PM54 °FClear.12 mph47%30.12 "HgN/A
8:30 PM54 °FClear.10 mph51%30.12 "HgN/A
8:00 PM55 °FClear.9 mph47%30.09 "HgN/A
7:30 PM57 °FClear.15 mph48%30.09 "HgN/A
7:00 PM57 °FClear.10 mph48%30.07 "HgN/A
6:30 PM57 °FClear.13 mph48%30.07 "HgN/A
6:00 PM57 °FCool.18 mph63%30.04 "HgN/A
5:30 PM57 °FCool.17 mph72%30.04 "HgN/A
5:00 PM55 °FPartly sunny.21 mph72%30.04 "HgN/A
4:30 PM57 °FMostly cloudy.17 mph77%30.04 "HgN/A
4:00 PM55 °FBroken clouds.21 mph77%30.04 "HgN/A
3:30 PM55 °FCool.22 mph82%30.04 "HgN/A
3:00 PM54 °FRain. Broken clouds.22 mph94%30.04 "HgN/A
2:30 PM55 °FBroken clouds.20 mph88%30.04 "Hg6 mi
2:00 PM54 °FRain. Fog.22 mph94%30.04 "Hg2 mi
1:30 PM54 °FLight rain. Fog.18 mph88%30.04 "Hg2 mi
1:00 PM54 °FBroken clouds.23 mph88%30.04 "HgN/A
12:30 PM55 °FMostly cloudy.23 mph77%30.04 "HgN/A
12:00 PM54 °FMostly cloudy.23 mph82%30.04 "HgN/A
11:30 AM55 °FMostly cloudy.24 mph72%30.04 "HgN/A
11:00 AM55 °FOvercast.23 mph72%30.04 "HgN/A
10:30 AM55 °FOvercast.26 mph67%30.01 "HgN/A
10:00 AM55 °FOvercast.21 mph72%30.01 "HgN/A
9:30 AM55 °FMostly cloudy.22 mph77%29.98 "HgN/A
9:00 AM55 °FOvercast.22 mph77%29.98 "HgN/A
8:30 AM55 °FOvercast.18 mph77%29.98 "HgN/A
8:00 AM55 °FMostly cloudy.20 mph77%29.98 "HgN/A
7:30 AM55 °FMostly cloudy.22 mph77%29.98 "HgN/A
7:00 AM55 °FMostly cloudy.23 mph77%29.98 "HgN/A
Weather by CustomWeather, © 2015

See weather overviewHow to use our weather pages